Location: Alsip
(41.6689°N, 87.7387°W)
Time: 13:30:46
(UTC+00:00)

Cosmos 1437 Rocket - Pass Details

Date: 14 July 2020
Orbit: 506 x 562 km, 81.2° (Epoch: 04 August)

Event Time Altitude Azimuth Distance (km) Brightness Sun altitude
Rises 08:29:21 0° 335° (NNW) 2,726 6.8 -17.6°
Reaches altitude 10° 08:31:56 10° 319° (NW) 1,817 5.6 -17.3°
Enters shadow 08:34:50 21° 272° (W) 1,260 4.3 -17.0°
